Location: Unspecified
(37.6100°N, 2.7800°W)
Time: 10:19:00
(UTC+00:00)

Tiangong 2 - Visible Passes

Search period start: 21 August 2018 00:00
Search period end: 31 August 2018 00:00
Orbit: 384 x 395 km, 42.8° (Epoch: 20 August)

Date Brightness Start Highest point End Pass type
(mag) Time Alt. Az. Time Alt. Az. Time Alt. Az.
21 Aug 3.3 03:11:49 27° ENE 03:11:49 27° ENE 03:13:26 10° ENE visible
21 Aug 2.6 04:44:30 10° WNW 04:47:24 31° N 04:50:19 10° ENE visible
22 Aug 2.3 03:48:53 33° NNW 03:49:22 35° N 03:52:21 10° ENE visible
23 Aug 4.2 02:53:40 16° NE 02:53:40 16° NE 02:54:28 10° ENE visible
23 Aug 2.7 04:25:59 12° WNW 04:28:38 30° N 04:31:31 10° ENE visible
24 Aug 2.8 03:30:48 30° N 03:30:48 30° N 03:33:28 10° ENE visible
24 Aug 2.1 05:04:44 10° WNW 05:07:50 44° NNE 05:10:56 10° E visible
25 Aug 2.5 04:08:00 19° NW 04:09:49 35° N 04:12:48 10° ENE visible
26 Aug 3.6 03:12:59 23° NE 03:12:59 23° NE 03:14:39 10° ENE visible
26 Aug 1.4 04:45:43 10° WNW 04:48:55 69° NNE 04:52:06 10° ESE visible
27 Aug 1.9 03:50:26 42° NNW 03:50:56 46° NNE 03:54:02 10° E visible
28 Aug 4.5 02:55:43 11° ENE 02:55:43 11° ENE 02:55:53 10° E visible
28 Aug 1.0 04:28:05 23° WNW 04:29:53 66° SSW 04:33:03 10° SE visible
29 Aug 3.0 03:33:35 26° ESE 03:33:35 26° ESE 03:35:08 10° ESE visible
29 Aug 2.7 05:06:14 10° W 05:08:33 19° SW 05:10:52 10° S visible
30 Aug 2.4 04:11:43 26° S 04:11:43 26° S 04:13:39 10° SE visible
